Location: Erdweis
(48.5167°N, 15.3500°E)
Time: 00:29:00
(UTC+00:00)

NOSS 2-2 (C) - Pass Details

Date: 24 January 2021
Orbit: 463 x 1745 km, 63.3° (Epoch: 03 March)

Event Time Altitude Azimuth Distance (km) Brightness Sun altitude
Rises 16:43:20 0° 316° (NW) 2,783 7.3 -9.8°
Reaches altitude 10° 16:46:08 10° 339° (NNW) 2,043 6.3 -10.2°
Maximum altitude 16:49:06 17° 19° (NNE) 1,827 5.6 -10.7°
Enters shadow 16:51:46 12° 51° (NE) 2,265 5.9 -11.1°
